sat.trackr.live / text

‹ back to catalog

STARLINK-2371

NORAD 47911 · 2021-021BD

PAYLOAD ACTIVE UNKNOWN

§ Identity

Operator
Country
US
Launch date
2021-03-14
Launch site
AFETR
Launch vehicle
Mass (kg)
RCS (m²)

Purposes: comms

External: N2YO · Heavens-Above · Gunter

§ Orbital elements

Epoch: 2026-09-20T02:46:11.671968Z

Period
93.96 min
Inclination
53.1580°
Eccentricity
0.0000511
Mean motion
15.32615500 rev/d
Perigee alt
467.7 km
Apogee alt
468.4 km
Semi-major
6,846.1 km
B*
7.0397e-4
RAAN
96.1081°
Arg perigee
70.0941°
Mean anomaly
290.0116°
Rev number
30,570

§ Raw data

STARLINK-23711 47911U 21021BD  26263.11541287  .00022179  00000+0  70397-3 0  99952 47911  53.1580  96.1081 0000511  70.0941 290.0116 15.32615500305701

JSON: /api/v1/satellites/47911 · /tle

For live sub-satellite position, see the globe view (requires WebGL).

§ Visibility from observer

Set your observer location to see the next 7 days of passes ≥ 10°. The values pass through the URL so the page stays shareable.

No JS? Fill the form by hand. The geolocation button needs JavaScript.